Location: Newark
(60.0000°N, 100.0000°E)
Time: 15:56:54
(UTC+00:00)

N. Korean satellite - Pass Details

Date: 21 November 2019
Orbit: 456 x 506 km, 97.2° (Epoch: 05 December)

Event Time Altitude Azimuth Distance (km) Brightness Sun altitude
Rises 09:39:43 0° 153° (SSE) 2,583 10.3 -7.0°
Reaches altitude 10° 09:41:47 10° 150° (SSE) 1,709 9.3 -7.2°
Maximum altitude 09:45:26 63° 70° (ENE) 571 6.6 -7.7°
Drops below altitude 10° 09:49:08 10° 349° (N) 1,735 9.2 -8.1°
Sets 09:51:15 0° 346° (NNW) 2,626 10.2 -8.3°
